Location: Freistadt
(48.5112°N, 14.5013°E)
Time: 09:58:43
(UTC+02:00)

PCSat - Pass Details

Date: 31 March 2023
Orbit: 783 x 794 km, 67.1° (Epoch: 29 May)

Event Time Altitude Azimuth Distance (km) Brightness Sun altitude
Rises 22:11:05 0° 324° (NW) 3,298 14.1 -24.9°
Reaches altitude 10° 22:14:42 10° 348° (NNW) 2,369 12.7 -25.3°
Maximum altitude 22:17:39 15° 21° (NNE) 2,062 11.9 -25.7°
Enters shadow 22:20:09 11° 50° (NE) 2,283 11.9 -26.0°
